When you browse on this site, cookies collect data to enhance your experience and personalize the content and advertising you see.
Visit our Privacy Policy to learn more. By continuing to use the site, you agree to this use of cookies and data.
  • In Hungary
  • List of Countries
  • For 7 days
  • Water Temperature
  • Satellite Maps
  • Weather Map
  • News
  • Weather Widgets
  • user-avatar
    Login

    Hourly Weather Chhabra

    Today, 17 January, Thursday

    Time Temperature Precipitation Wind Pressure Humidity
    00:00 +18°C° 0 mm 1 mps 732 mmHg 28%
    01:00 +16°C° 0 mm 1 mps 732 mmHg 28%
    02:00 +16°C° 0 mm 1 mps 732 mmHg 29%
    03:00 +16°C° 0 mm 1 mps 732 mmHg 30%
    04:00 +15°C° 0 mm 1 mps 732 mmHg 31%
    05:00 +15°C° 0 mm 1 mps 732 mmHg 33%
    06:00 +16°C° 0 mm 1 mps 732 mmHg 32%
    07:00 +18°C° 0 mm 1 mps 733 mmHg 32%
    08:00 +18°C° 0 mm 1 mps 733 mmHg 31%
    09:00 +21°C° 0 mm 1 mps 734 mmHg 28%
    10:00 +23°C° 0 mm 1 mps 734 mmHg 25%
    11:00 +25°C° 0 mm 1 mps 734 mmHg 22%
    12:00 +26°C° 0 mm 1 mps 733 mmHg 21%
    13:00 +27°C° 0 mm 2 mps 733 mmHg 20%
    14:00 +28°C° 0 mm 2 mps 732 mmHg 19%
    15:00 +27°C° 0 mm 2 mps 732 mmHg 21%
    16:00 +26°C° 0 mm 2 mps 732 mmHg 23%
    17:00 +25°C° 0 mm 2 mps 732 mmHg 26%
    18:00 +23°C° 0 mm 2 mps 732 mmHg 28%
    19:00 +21°C° 0 mm 2 mps 733 mmHg 29%
    20:00 +19°C° 0 mm 3 mps 733 mmHg 31%
    21:00 +19°C° 0 mm 3 mps 733 mmHg 32%
    22:00 +18°C° 0 mm 3 mps 733 mmHg 33%
    23:00 +17°C° 0 mm 3 mps 733 mmHg 34%

    Tomorrow, 18 January, Friday

    Time Temperature Precipitation Wind Pressure Humidity
    00:00 +17°C° 0 mm 3 mps 733 mmHg 35%
    01:00 +16°C° 0 mm 3 mps 733 mmHg 36%
    02:00 +16°C° 0 mm 3 mps 733 mmHg 38%
    03:00 +15°C° 0 mm 2 mps 733 mmHg 39%
    04:00 +15°C° 0 mm 2 mps 733 mmHg 41%
    05:00 +14°C° 0 mm 2 mps 733 mmHg 43%
    06:00 +15°C° 0 mm 2 mps 734 mmHg 43%
    07:00 +15°C° 0 mm 2 mps 734 mmHg 43%
    08:00 +16°C° 0 mm 2 mps 735 mmHg 43%
    09:00 +18°C° 0 mm 2 mps 735 mmHg 36%
    10:00 +21°C° 0 mm 2 mps 735 mmHg 29%
    11:00 +25°C° 0 mm 2 mps 735 mmHg 23%
    12:00 +26°C° 0 mm 2 mps 735 mmHg 20%
    13:00 +27°C° 0 mm 2 mps 734 mmHg 18%
    14:00 +28°C° 0 mm 2 mps 733 mmHg 15%
    15:00 +27°C° 0 mm 2 mps 733 mmHg 17%
    16:00 +26°C° 0 mm 2 mps 733 mmHg 19%
    17:00 +25°C° 0 mm 2 mps 733 mmHg 21%
    18:00 +23°C° 0 mm 2 mps 733 mmHg 22%
    19:00 +21°C° 0 mm 2 mps 734 mmHg 24%
    20:00 +19°C° 0 mm 2 mps 734 mmHg 25%
    21:00 +19°C° 0 mm 2 mps 734 mmHg 25%
    22:00 +18°C° 0 mm 2 mps 734 mmHg 26%
    23:00 +17°C° 0 mm 2 mps 734 mmHg 26%

    Day after tomorrow, 19 January, Saturday

    Time Temperature Precipitation Wind Pressure Humidity
    00:00 +17°C° 0 mm 2 mps 734 mmHg 27%
    01:00 +16°C° 0 mm 2 mps 734 mmHg 28%
    02:00 +16°C° 0 mm 2 mps 733 mmHg 28%
    03:00 +16°C° 0 mm 2 mps 733 mmHg 30%
    04:00 +15°C° 0 mm 2 mps 733 mmHg 31%
    05:00 +15°C° 0 mm 2 mps 733 mmHg 33%
    06:00 +16°C° 0 mm 2 mps 733 mmHg 34%
    07:00 +16°C° 0 mm 2 mps 734 mmHg 35%
    08:00 +17°C° 0 mm 2 mps 735 mmHg 36%
    09:00 +20°C° 0 mm 2 mps 735 mmHg 31%
    10:00 +23°C° 0 mm 2 mps 735 mmHg 26%
    11:00 +26°C° 0 mm 2 mps 735 mmHg 21%
    12:00 +27°C° 0 mm 1 mps 734 mmHg 19%
    13:00 +28°C° 0 mm 1 mps 734 mmHg 18%
    14:00 +29°C° 0 mm 1 mps 733 mmHg 16%
    15:00 +28°C° 0 mm 1 mps 733 mmHg 18%
    16:00 +27°C° 0 mm 1 mps 732 mmHg 20%
    17:00 +26°C° 0 mm 1 mps 732 mmHg 22%
    18:00 +25°C° 0 mm 2 mps 733 mmHg 24%
    19:00 +23°C° 0 mm 2 mps 733 mmHg 25%
    20:00 +21°C° 0 mm 2 mps 734 mmHg 26%
    21:00 +20°C° 0 mm 2 mps 734 mmHg 27%
    22:00 +19°C° 0 mm 2 mps 734 mmHg 28%
    23:00 +19°C° 0 mm 2 mps 734 mmHg 29%

    20 January, Sunday

    Time Temperature Precipitation Wind Pressure Humidity
    00:00 +18°C° 0 mm 2 mps 733 mmHg 30%
    01:00 +18°C° 0 mm 2 mps 733 mmHg 30%
    02:00 +17°C° 0 mm 3 mps 733 mmHg 31%
    03:00 +17°C° 0 mm 2 mps 733 mmHg 32%
    04:00 +16°C° 0 mm 2 mps 733 mmHg 32%
    05:00 +16°C° 0 mm 2 mps 732 mmHg 33%
    06:00 +17°C° 0 mm 2 mps 733 mmHg 33%
    07:00 +17°C° 0 mm 2 mps 734 mmHg 33%
    08:00 +18°C° 0 mm 2 mps 734 mmHg 33%
    09:00 +21°C° 0 mm 2 mps 735 mmHg 29%
    10:00 +25°C° 0 mm 2 mps 735 mmHg 24%
    11:00 +27°C° 0 mm 2 mps 735 mmHg 20%
    12:00 +28°C° 0 mm 2 mps 734 mmHg 19%
    13:00 +29°C° 0 mm 1 mps 733 mmHg 17%
    14:00 +30°C° 0 mm 1 mps 732 mmHg 16%
    15:00 +29°C° 0 mm 1 mps 732 mmHg 18%
    16:00 +26°C° 0 mm 0 mps 732 mmHg 20%
    17:00 +25°C° 0 mm 0 mps 732 mmHg 22%
    18:00 +26°C° 0 mm 1 mps 732 mmHg 23%
    19:00 +24°C° 0 mm 1 mps 732 mmHg 24%
    20:00 +23°C° 0 mm 2 mps 733 mmHg 24%
    21:00 +21°C° 0 mm 2 mps 733 mmHg 25%
    22:00 +21°C° 0 mm 2 mps 733 mmHg 27%
    23:00 +20°C° 0 mm 3 mps 733 mmHg 28%

    21 January, Monday

    Time Temperature Precipitation Wind Pressure Humidity
    00:00 +20°C° 0 mm 3 mps 732 mmHg 29%
    01:00 +19°C° 0 mm 3 mps 732 mmHg 30%
    02:00 +19°C° 0 mm 3 mps 731 mmHg 31%
    03:00 +19°C° 0 mm 3 mps 731 mmHg 31%
    04:00 +18°C° 0 mm 3 mps 731 mmHg 31%
    05:00 +18°C° 0 mm 3 mps 731 mmHg 32%
    06:00 +19°C° 0 mm 3 mps 732 mmHg 32%
    07:00 +19°C° 0 mm 3 mps 732 mmHg 33%
    08:00 +20°C° 0 mm 3 mps 733 mmHg 33%
    09:00 +23°C° 0 mm 4 mps 733 mmHg 29%
    10:00 +27°C° 0 mm 4 mps 733 mmHg 25%
    11:00 +30°C° 0 mm 5 mps 733 mmHg 20%
    12:00 +32°C° 0 mm 5 mps 732 mmHg 19%
    13:00 +33°C° 0 mm 6 mps 731 mmHg 18%
    14:00 +34°C° 0 mm 6 mps 730 mmHg 16%
    15:00 +32°C° 0 mm 5 mps 729 mmHg 19%
    16:00 +30°C° 0 mm 3 mps 729 mmHg 22%
    17:00 +28°C° 0 mm 2 mps 729 mmHg 25%
    18:00 +27°C° 0.2 mm 2 mps 729 mmHg 28%
    19:00 +25°C° 0.2 mm 2 mps 730 mmHg 32%
    20:00 +24°C° 0.2 mm 2 mps 730 mmHg 36%
    21:00 +23°C° 0 mm 1 mps 730 mmHg 38%
    22:00 +22°C° 0 mm 1 mps 730 mmHg 41%
    23:00 +21°C° 0 mm 1 mps 730 mmHg 43%

    22 January, Tuesday

    Time Temperature Precipitation Wind Pressure Humidity
    00:00 +21°C° 0 mm 1 mps 730 mmHg 44%
    01:00 +20°C° 0 mm 1 mps 730 mmHg 45%
    02:00 +19°C° 0 mm 1 mps 730 mmHg 46%
    03:00 +19°C° 0 mm 1 mps 730 mmHg 45%
    04:00 +19°C° 0 mm 1 mps 730 mmHg 45%
    05:00 +17°C° 0 mm 2 mps 730 mmHg 44%
    06:00 +18°C° 0 mm 2 mps 731 mmHg 43%
    07:00 +20°C° 0 mm 1 mps 731 mmHg 41%
    08:00 +20°C° 0 mm 1 mps 732 mmHg 39%
    09:00 +22°C° 0 mm 1 mps 732 mmHg 35%
    10:00 +24°C° 0 mm 1 mps 732 mmHg 31%
    11:00 +26°C° 0 mm 1 mps 733 mmHg 27%
    12:00 +27°C° 0 mm 2 mps 732 mmHg 26%
    13:00 +28°C° 0 mm 2 mps 731 mmHg 25%
    14:00 +29°C° 0 mm 3 mps 730 mmHg 24%
    15:00 +28°C° 0 mm 2 mps 730 mmHg 27%
    16:00 +27°C° 0 mm 2 mps 730 mmHg 29%
    17:00 +27°C° 0 mm 2 mps 730 mmHg 31%
    18:00 +25°C° 0 mm 2 mps 731 mmHg 34%
    19:00 +24°C° 0 mm 2 mps 731 mmHg 36%
    20:00 +21°C° 0 mm 2 mps 732 mmHg 39%
    21:00 +21°C° 0 mm 2 mps 732 mmHg 40%
    22:00 +20°C° 0 mm 2 mps 732 mmHg 40%
    23:00 +20°C° 0 mm 2 mps 732 mmHg 41%
    Show more